Location: Jackson Park
(37.2862°N, 79.9123°W)
Time: 14:39:07
(UTC+00:00)

Tiros 1 despin weight - Pass Details

Date: 11 May 2026
Orbit: 554 x 591 km, 48.2° (Epoch: 6 June)

Event Time Altitude Azimuth Distance (km) Brightness Sun altitude
Rises 17:00:16 0° 307° (NW) 2,729 ? 70.4°
Reaches altitude 10° 17:02:36 10° 314° (NW) 1,833 ? 70.5°
Maximum altitude 17:06:37 45° 27° (NNE) 765 ? 70.6°
Drops below altitude 10° 17:10:39 10° 101° (E) 1,836 ? 70.7°
Sets 17:12:58 0° 108° (ESE) 2,734 ? 70.7°
